Snowfall_Accumulation
nan nan nan nan nan nan nan 0.0 3.2 0.0 0.0 2.4 0.3 0.5 0.0 nan 0.0 0.0 0.0 0.0 0.0 0.0 0.0 0.0 0.0 0.0 0.0 0.0 0.0 0.0 0.0 0.0 0.0 0.0 0.0 0.0 0.0 0.0 0.1 2.8 1.0 1.1 1.7 0.4
nan nan nan nan nan nan 0.0 0.8 1.5 0.0 0.0 9.4 2.8 0.0 0.0 0.0 0.0 0.0 0.0 0.0 0.0 0.0 0.0 0.0 0.0 0.0 0.0 0.0 0.0 0.0 0.0 0.0 0.3 0.0 0.1 0.0 0.0 0.0 0.0 0.0 0.3 0.2 3.8 0.5
nan nan nan nan nan nan 0.0 0.3 7.7 3.0 0.8 0.3 0.6 0.2 0.0 0.0 0.0 0.0 0.0 0.0 0.0 0.0 0.0 0.0 0.0 0.0 0.0 0.0 0.0 nan nan 0.0 0.0 0.1 0.0 0.0 0.0 0.0 0.0 0.0 0.7 0.1 0.3 0.0
nan nan nan nan nan nan 0.0 0.4 4.2 0.3 4.7 1.5 0.1 0.0 0.0 0.0 0.0 0.0 0.0 0.0 0.0 0.0 0.0 0.0 0.0 0.0 0.0 0.0 nan 0.0 0.0 0.1 0.0 0.0 0.0 0.0 0.0 0.0 0.0 0.0 0.0 0.3 0.0 0.0
nan nan nan nan nan nan 0.0 4.1 1.2 0.0 0.0 0.0 0.0 0.0 0.2 0.0 0.0 0.0 0.0 0.0 0.0 0.0 0.1 0.1 0.1 0.0 0.0 0.0 0.0 0.0 0.0 0.6 0.1 0.1 0.0 0.0 0.0 0.0 0.0 0.0 0.0 0.0 0.0 0.0
nan nan nan nan nan nan 0.0 0.0 0.0 0.0 nan 0.0 0.3 0.3 0.0 0.0 0.0 0.0 0.0 0.0 0.4 0.0 0.0 0.0 0.0 0.0 0.0 0.0 0.0 0.0 0.0 0.0 0.1 0.0 0.0 0.0 0.2 0.0 0.0 0.0 0.1 0.2 0.4 0.0
nan nan nan nan nan nan 0.0 0.0 0.0 0.9 1.2 0.1 0.1 0.0 0.0 0.0 0.0 0.0 0.0 0.0 0.0 0.0 0.0 0.0 0.0 0.0 0.0 0.0 0.0 0.0 0.0 0.0 0.1 0.4 0.0 0.8 0.2 0.0 0.0 0.1 0.0 0.0 0.0 0.0
nan nan nan nan nan nan 0.0 0.0 0.0 0.3 3.4 0.0 0.0 0.0 0.0 0.0 0.0 0.0 0.0 0.0 0.0 0.0 0.0 0.2 0.1 0.2 0.0 0.0 0.0 0.0 0.0 0.0 1.1 3.0 0.4 0.0 0.0 0.0 0.0 0.1 0.1 0.0 0.0 0.0
nan nan nan nan nan nan 0.0 0.0 0.0 0.0 1.3 0.3 0.0 0.0 0.0 0.0 0.0 0.0 0.0 0.0 0.0 0.0 0.2 0.5 0.3 1.0 0.0 0.1 0.0 0.0 0.0 0.0 0.9 0.7 0.4 2.2 0.1 0.0 0.0 0.0 0.7 0.1 0.0 0.0
nan nan nan nan nan nan 0.0 0.0 0.0 0.0 1.0 0.0 0.0 0.1 0.0 0.0 0.0 0.1 0.0 0.0 0.0 0.0 0.5 2.5 1.0 0.3 0.0 0.4 1.1 4.2 0.7 1.3 4.1 1.1 4.0 1.4 0.0 0.0 0.0 0.6 1.3 0.0 0.1 0.1
nan nan nan nan nan nan 0.0 0.0 0.0 0.0 0.2 0.0 0.0 0.0 0.0 0.0 0.0 0.1 0.0 0.5 0.3 0.2 0.4 1.5 0.2 0.6 0.4 0.4 0.1 1.9 5.0 4.9 4.1 2.0 3.1 5.1 0.0 0.0 0.4 0.9 0.0 0.1 0.1 0.1
nan nan nan nan nan nan nan 0.0 0.0 0.0 0.0 0.1 0.0 0.0 0.0 0.0 0.0 0.0 0.0 0.1 0.0 0.3 0.8 0.8 0.6 0.7 0.9 0.1 1.4 0.1 5.7 2.9 5.6 1.0 1.8 0.1 0.0 0.1 0.0 0.1 0.1 0.1 0.1 0.1
nan nan nan nan nan nan nan 0.0 0.0 0.0 0.2 0.2 0.0 0.0 0.0 0.0 0.0 0.0 0.0 0.0 0.0 0.0 0.0 0.4 0.2 0.1 0.0 1.6 0.4 0.2 0.1 0.0 3.9 0.8 0.1 0.0 0.1 0.0 0.0 0.0 0.1 0.0 0.0 0.0
nan nan nan nan nan nan nan 0.0 0.0 0.0 0.0 3.2 0.6 0.0 0.0 0.0 0.0 0.0 0.0 0.0 0.0 0.0 0.0 0.2 0.3 0.5 0.0 0.0 0.1 0.3 1.0 0.1 0.2 0.5 0.1 0.0 0.0 0.0 0.1 0.0 0.0 0.0 0.0 0.0
nan nan nan nan nan nan nan 0.0 0.0 0.0 0.1 1.1 0.3 0.0 0.0 0.0 0.0 0.0 0.0 0.0 0.0 0.0 0.1 0.9 0.5 0.0 0.2 0.0 0.0 1.1 0.0 0.1 1.9 2.3 0.3 0.6 0.1 0.1 0.0 0.0 0.0 0.0 0.0 0.0
nan nan nan nan nan nan 0.0 0.6 0.0 0.0 0.0 0.7 2.9 0.0 0.0 0.0 0.0 0.0 0.0 0.0 0.0 0.0 0.0 0.2 0.0 0.0 0.1 1.3 0.4 0.0 0.0 0.0 0.0 0.5 0.0 0.0 0.0 0.0 0.0 0.0 0.0 0.0 0.0 0.0
nan nan nan nan nan 0.0 0.1 0.0 0.0 nan 0.0 0.7 3.9 1.2 0.0 0.0 0.0 0.0 0.0 0.0 0.0 0.0 0.0 0.3 0.0 0.0 0.1 0.4 0.2 0.0 0.0 0.0 0.0 0.0 0.0 0.0 0.0 0.0 0.0 0.0 0.0 0.0 0.0 0.0
nan nan nan nan nan nan 0.0 0.0 nan nan 0.0 0.0 5.5 1.4 0.1 0.0 0.0 0.1 0.0 0.0 0.0 0.1 0.0 0.1 0.1 0.0 0.2 0.7 0.0 0.0 0.0 0.0 0.0 0.0 0.0 0.0 0.0 0.0 0.0 0.0 0.0 0.0 0.0 0.0
nan nan nan 0.0 0.0 0.3 0.0 nan nan 0.0 0.1 1.3 2.8 1.5 3.6 0.0 0.0 0.0 0.2 0.0 1.7 0.0 0.5 0.2 0.1 0.2 0.9 0.1 0.0 0.0 0.0 0.0 0.0 0.0 0.0 0.0 0.0 0.0 0.0 0.0 0.0 0.0 0.0 0.0
nan 0.0 0.7 11.0 0.3 nan nan 0.0 1.0 1.4 0.5 0.3 0.7 0.0 0.7 0.1 0.3 0.7 0.7 0.6 0.9 2.1 0.5 0.0 0.5 0.4 0.0 0.0 0.0 0.0 0.0 0.0 0.0 0.0 0.0 0.0 0.0 0.0 0.0 0.0 0.0 0.0 0.0 0.0
0.2 2.9 0.6 0.0 nan 0.0 0.3 5.9 5.0 1.2 2.0 0.1 0.1 0.0 0.2 0.0 1.1 1.3 0.2 3.9 1.3 3.0 0.5 0.9 0.6 0.9 0.2 0.0 0.0 0.0 0.0 0.0 0.0 0.0 0.0 0.0 0.0 0.0 0.0 0.0 0.0 0.0 0.0 0.0
0.0 0.0 0.0 0.0 0.2 1.8 2.9 5.8 2.3 0.3 0.1 0.1 0.2 0.1 0.0 0.2 0.1 0.6 1.6 1.1 2.7 0.9 0.2 3.3 1.7 0.8 0.0 0.0 0.0 0.0 0.0 0.0 0.0 0.0 0.0 0.0 0.0 0.0 0.0 0.0 0.0 0.0 0.1 3.0
0.0 0.1 0.6 1.6 5.1 27.7 4.8 5.1 2.1 3.2 0.2 0.4 0.3 2.5 0.2 0.3 0.2 1.7 1.9 5.2 4.5 0.1 3.9 0.3 0.4 0.0 0.0 0.0 0.0 0.0 0.0 0.0 0.0 0.0 0.0 0.0 0.0 0.0 0.0 0.0 0.1 1.0 2.2 2.7
1.5 6.0 33.1 5.4 6.3 0.9 0.6 0.3 0.3 0.4 0.3 0.2 0.2 0.5 0.6 0.6 1.6 1.0 6.3 0.8 0.5 5.6 2.8 1.2 0.4 0.0 0.0 0.0 0.0 0.0 0.0 0.0 1.6 0.0 0.0 0.1 0.2 1.0 2.5 5.0 5.3 4.6 3.6 6.3
4.5 1.2 20.5 6.0 1.5 1.3 1.2 0.7 0.5 0.3 0.2 0.2 0.4 0.6 0.5 2.3 6.3 1.0 0.6 5.9 5.7 1.8 2.3 1.5 0.6 0.0 0.0 0.0 0.0 0.0 0.1 1.5 1.8 2.2 3.9 5.3 4.3 3.1 4.1 4.9 5.2 3.2 6.9 7.4
1.7 1.1 3.5 1.5 4.8 10.3 6.2 3.1 2.6 0.3 0.4 0.3 0.3 1.5 5.8 4.5 2.6 1.8 1.8 1.1 1.9 3.1 1.6 0.9 0.5 0.1 0.2 0.1 0.2 0.9 1.6 2.9 4.7 5.8 5.6 6.2 7.2 6.6 6.5 6.2 6.9 10.5 9.1 13.0
1.0 8.1 2.4 2.3 4.2 9.3 5.9 1.9 1.3 0.3 1.0 6.2 1.6 5.3 1.4 0.7 2.4 0.9 0.9 4.9 2.5 1.3 1.3 1.2 0.2 0.2 0.4 1.4 1.7 5.1 3.5 3.1 4.4 6.0 4.5 5.9 6.1 5.5 3.9 5.3 6.7 4.3 6.1 10.5
Water_Equivalent
nan nan nan nan nan nan nan 0.00 1.01 0.01 0.00 0.74 0.14 0.15 0.00 nan 0.00 0.00 0.00 0.00 0.00 0.00 0.00 0.00 0.00 0.00 0.00 0.00 0.00 0.00 0.00 0.00 0.00 0.00 0.00 0.00 0.00 0.00 0.02 0.48 0.15 0.18 0.27 0.05
nan nan nan nan nan nan 0.00 0.33 0.53 0.01 0.00 2.13 0.62 0.01 0.00 0.00 0.00 0.00 0.00 0.00 0.00 0.00 0.00 0.00 0.00 0.00 0.00 0.00 0.00 0.00 0.00 0.00 0.05 0.00 0.02 0.00 0.00 0.00 0.00 0.01 0.06 0.03 0.59 0.08
nan nan nan nan nan nan 0.00 0.13 1.57 0.80 0.27 0.10 0.18 0.04 0.01 0.00 0.00 0.00 0.00 0.00 0.00 0.00 0.00 0.00 0.00 0.00 0.00 0.00 0.00 nan nan 0.00 0.00 0.02 0.01 0.01 0.01 0.00 0.00 0.00 0.18 0.02 0.07 0.01
nan nan nan nan nan nan 0.00 0.16 0.92 0.06 0.78 0.31 0.02 0.00 0.00 0.00 0.00 0.00 0.00 0.00 0.00 0.00 0.01 0.00 0.00 0.00 0.00 0.00 nan 0.00 0.00 0.01 0.00 0.00 0.00 0.00 0.00 0.00 0.00 0.00 0.00 0.08 0.00 0.01
nan nan nan nan nan nan 0.00 1.27 0.28 0.00 0.00 0.00 0.01 0.00 0.04 0.00 0.00 0.00 0.01 0.00 0.00 0.00 0.02 0.03 0.03 0.00 0.00 0.00 0.00 0.00 0.00 0.11 0.03 0.03 0.00 0.00 0.00 0.00 0.00 0.00 0.00 0.00 0.00 0.00
nan nan nan nan nan nan 0.00 0.00 0.00 0.00 nan 0.00 0.06 0.06 0.00 0.00 0.00 0.00 0.00 0.01 0.11 0.00 0.00 0.00 0.00 0.00 0.00 0.00 0.00 0.01 0.01 0.01 0.03 0.00 0.00 0.00 0.04 0.00 0.00 0.00 0.03 0.04 0.06 0.01
nan nan nan nan nan nan 0.00 0.00 0.00 0.24 0.26 0.03 0.01 0.00 0.00 0.00 0.00 0.01 0.00 0.00 0.00 0.00 0.00 0.00 0.00 0.00 0.00 0.00 0.00 0.01 0.00 0.00 0.03 0.11 0.01 0.16 0.03 0.00 0.00 0.02 0.00 0.00 0.00 0.00
nan nan nan nan nan nan 0.00 0.00 0.01 0.08 0.74 0.01 0.00 0.00 0.00 0.00 0.00 0.00 0.00 0.00 0.00 0.00 0.00 0.08 0.02 0.05 0.00 0.00 0.00 0.00 0.00 0.00 0.27 0.61 0.10 0.00 0.01 0.00 0.01 0.01 0.01 0.00 0.00 0.00
nan nan nan nan nan nan 0.00 0.00 0.00 0.00 0.34 0.05 0.00 0.00 0.00 0.00 0.00 0.00 0.00 0.00 0.00 0.00 0.05 0.13 0.04 0.21 0.01 0.03 0.01 0.00 0.00 0.00 0.18 0.18 0.06 0.44 0.02 0.00 0.00 0.00 0.13 0.02 0.00 0.00
nan nan nan nan nan nan 0.00 0.00 0.00 0.00 0.28 0.00 0.00 0.03 0.00 0.00 0.01 0.02 0.00 0.00 0.00 0.00 0.16 0.90 0.34 0.10 0.00 0.11 0.20 0.78 0.17 0.28 0.70 0.24 0.72 0.26 0.00 0.00 0.00 0.11 0.24 0.01 0.01 0.02
nan nan nan nan nan nan 0.00 0.00 0.00 0.00 0.07 0.00 0.00 0.00 0.00 0.00 0.00 0.03 0.00 0.11 0.07 0.05 0.12 0.57 0.08 0.20 0.09 0.09 0.02 0.39 0.92 0.95 0.89 0.42 0.64 0.85 0.00 0.00 0.08 0.19 0.01 0.02 0.03 0.03
nan nan nan nan nan nan nan 0.00 0.00 0.00 0.00 0.02 0.00 0.00 0.00 0.00 0.00 0.00 0.00 0.03 0.00 0.09 0.22 0.20 0.15 0.23 0.28 0.03 0.27 0.03 1.05 0.59 0.93 0.18 0.34 0.02 0.00 0.02 0.01 0.02 0.03 0.04 0.03 0.03
nan nan nan nan nan nan nan 0.00 0.00 0.00 0.08 0.06 0.01 0.00 0.00 0.00 0.00 0.00 0.00 0.00 0.00 0.00 0.00 0.10 0.06 0.03 0.01 0.39 0.10 0.04 0.02 0.00 1.02 0.16 0.01 0.01 0.02 0.00 0.00 0.00 0.02 0.00 0.00 0.00
nan nan nan nan nan nan nan 0.00 0.00 0.00 0.00 0.81 0.21 0.00 0.00 0.00 0.00 0.00 0.00 0.00 0.00 0.00 0.00 0.06 0.11 0.18 0.00 0.02 0.04 0.07 0.25 0.03 0.05 0.11 0.03 0.00 0.01 0.01 0.02 0.01 0.00 0.00 0.00 0.00
nan nan nan nan nan nan nan 0.00 0.00 0.00 0.02 0.26 0.08 0.00 0.00 0.00 0.00 0.00 0.00 0.00 0.00 0.00 0.04 0.30 0.16 0.00 0.05 0.00 0.00 0.26 0.00 0.01 0.38 0.48 0.06 0.15 0.02 0.04 0.01 0.01 0.00 0.00 0.00 0.00
nan nan nan nan nan nan 0.00 0.25 0.00 0.00 0.00 0.20 0.55 0.00 0.00 0.00 0.00 0.00 0.00 0.00 0.00 0.00 0.01 0.08 0.00 0.00 0.02 0.41 0.10 0.00 0.00 0.00 0.01 0.13 0.00 0.00 0.00 0.00 0.00 0.00 0.00 0.00 0.00 0.00
nan nan nan nan nan 0.00 0.06 0.01 0.00 nan 0.00 0.23 1.20 0.22 0.00 0.00 0.00 0.00 0.00 0.00 0.00 0.00 0.01 0.10 0.00 0.00 0.02 0.13 0.08 0.00 0.00 0.00 0.00 0.00 0.00 0.00 0.00 0.00 0.00 0.00 0.00 0.00 0.00 0.00
nan nan nan nan nan nan 0.00 0.00 nan nan 0.00 0.01 1.97 0.37 0.03 0.00 0.00 0.03 0.00 0.00 0.01 0.03 0.00 0.05 0.05 0.01 0.07 0.17 0.00 0.00 0.00 0.00 0.00 0.00 0.00 0.00 0.00 0.00 0.00 0.00 0.00 0.00 0.00 0.00
nan nan nan 0.00 0.00 0.13 0.00 nan nan 0.00 0.03 0.46 1.11 0.56 1.21 0.00 0.01 0.01 0.05 0.00 0.45 0.01 0.18 0.09 0.03 0.08 0.22 0.03 0.00 0.00 0.00 0.00 0.00 0.00 0.00 0.00 0.00 0.00 0.00 0.00 0.00 0.00 0.00 0.00
nan 0.00 0.27 3.40 0.10 nan nan 0.01 0.38 0.46 0.15 0.09 0.26 0.02 0.27 0.04 0.11 0.21 0.22 0.18 0.28 0.68 0.17 0.00 0.15 0.11 0.00 0.00 0.00 0.00 0.00 0.00 0.00 0.00 0.00 0.00 0.00 0.00 0.00 0.00 0.00 0.00 0.00 0.00
0.10 0.97 0.22 0.00 nan 0.00 0.11 1.52 1.45 0.35 0.62 0.05 0.03 0.00 0.07 0.00 0.43 0.49 0.09 1.25 0.42 0.97 0.13 0.26 0.16 0.20 0.04 0.00 0.00 0.00 0.00 0.00 0.00 0.00 0.00 0.00 0.00 0.00 0.00 0.00 0.00 0.00 0.00 0.01
0.00 0.00 0.00 0.00 0.07 0.54 0.97 2.04 0.82 0.12 0.03 0.03 0.10 0.04 0.01 0.09 0.03 0.20 0.61 0.38 0.92 0.24 0.06 0.88 0.39 0.17 0.00 0.00 0.00 0.00 0.00 0.00 0.00 0.00 0.00 0.00 0.00 0.00 0.00 0.00 0.00 0.00 0.02 0.54
0.00 0.05 0.22 0.42 1.89 5.82 1.76 1.37 0.69 1.24 0.10 0.16 0.11 1.00 0.08 0.11 0.06 0.69 0.74 1.80 1.43 0.04 1.31 0.09 0.10 0.01 0.00 0.00 0.00 0.00 0.00 0.00 0.00 0.00 0.00 0.00 0.00 0.00 0.00 0.01 0.02 0.19 0.29 0.35
0.42 2.04 6.99 2.03 2.36 0.31 0.22 0.11 0.12 0.15 0.13 0.09 0.06 0.21 0.21 0.24 0.60 0.41 2.20 0.29 0.17 1.65 0.75 0.32 0.11 0.00 0.00 0.00 0.00 0.00 0.00 0.01 0.44 0.00 0.00 0.02 0.04 0.14 0.37 0.80 0.87 0.68 0.42 0.73
1.25 0.42 3.62 1.59 0.49 0.43 0.44 0.29 0.20 0.11 0.06 0.07 0.15 0.25 0.18 0.77 2.13 0.34 0.21 1.78 1.65 0.52 0.56 0.36 0.17 0.00 0.00 0.00 0.00 0.01 0.02 0.27 0.30 0.40 0.73 0.86 0.64 0.47 0.51 0.60 0.62 0.37 0.93 0.94
0.51 0.34 1.02 0.53 1.58 3.37 2.41 1.25 1.02 0.10 0.13 0.10 0.12 0.47 1.81 1.37 0.82 0.51 0.55 0.28 0.45 0.72 0.36 0.23 0.12 0.02 0.04 0.03 0.04 0.19 0.31 0.48 0.62 0.72 0.73 0.89 0.93 0.85 0.78 0.80 0.86 1.43 1.26 1.77
0.31 2.16 0.70 0.69 1.36 2.39 1.79 0.71 0.44 0.10 0.35 2.22 0.48 1.43 0.36 0.20 0.65 0.20 0.22 1.21 0.59 0.29 0.28 0.26 0.03 0.04 0.09 0.27 0.30 0.74 0.49 0.44 0.54 0.70 0.50 0.64 0.69 0.66 0.40 0.53 0.70 0.47 0.54 1.41
SL_Ratio
nan nan nan nan nan nan nan nan 3.2 2.4 nan 3.2 2.5 3.3 nan nan nan nan nan nan nan nan nan nan nan nan nan nan nan nan nan nan nan nan nan nan nan 3.3 4.2 5.8 6.2 6.0 6.5 6.6
nan nan nan nan nan nan nan 2.5 2.9 2.5 nan 4.4 4.6 4.7 nan nan nan nan nan nan nan nan 0.0 0.0 nan nan nan nan nan nan nan 6.7 6.3 nan 6.4 nan nan nan nan 4.3 5.1 5.5 6.4 5.8
nan nan nan nan nan nan nan 2.5 4.9 3.7 3.1 3.0 3.3 4.5 4.8 nan nan nan nan nan nan nan nan nan nan nan nan nan nan nan nan nan nan 6.8 5.0 3.9 5.0 nan nan 3.3 4.2 4.6 5.2 4.5
nan nan nan nan nan nan nan 2.5 4.5 5.0 6.1 4.8 4.9 3.3 5.0 10.0 4.5 nan nan nan nan 5.0 4.7 nan nan nan nan nan nan nan nan 5.9 nan nan nan nan nan nan nan nan nan 4.1 nan 4.3
nan nan nan nan nan nan nan 3.2 4.4 5.0 nan nan 4.3 nan 5.3 10.0 nan 3.3 3.8 4.0 nan nan 4.5 4.1 4.5 nan nan nan nan nan nan 5.5 5.2 5.7 nan nan nan nan nan nan nan 10.0 5.0 6.0
nan nan nan nan nan nan nan nan nan nan nan 4.3 4.9 4.9 nan nan 0.0 nan nan 3.6 3.7 3.3 nan nan nan nan nan nan nan 4.2 4.6 5.5 3.7 nan nan 5.0 4.1 nan nan 3.8 4.8 4.9 6.0 4.8
nan nan nan nan nan nan nan nan nan 3.7 4.7 4.1 4.3 nan nan 5.0 nan 3.9 nan nan nan nan nan nan nan nan nan nan 2.5 2.9 5.0 3.3 3.2 3.3 3.8 5.0 6.1 nan nan 4.7 nan nan nan nan
nan nan nan nan nan nan nan nan 2.4 3.3 4.6 4.0 nan nan nan nan nan nan nan nan nan nan nan 3.2 5.7 4.0 5.0 nan nan nan nan nan 4.0 4.8 4.1 nan 4.4 5.0 4.5 4.9 5.6 nan nan nan
nan nan nan nan nan nan nan nan nan nan 3.8 5.0 nan nan nan 10.0 5.0 5.0 nan nan nan nan 3.2 3.5 7.1 4.6 4.4 3.9 3.3 nan nan nan 4.9 3.8 6.4 5.0 5.5 2.9 nan nan 5.8 3.3 nan 10.0
nan nan nan nan nan nan nan nan nan nan 3.5 nan 0.0 3.4 nan nan 3.7 3.9 nan nan nan nan 3.3 2.7 2.8 3.2 nan 3.9 5.8 5.4 4.2 4.6 5.8 4.8 5.5 5.4 4.3 nan nan 5.4 5.3 3.6 4.1 3.8
nan nan nan nan nan nan nan nan nan nan 2.6 6.7 nan nan nan 2.5 nan 3.6 nan 4.2 3.7 3.0 3.5 2.6 2.9 2.9 4.2 4.8 5.0 4.8 5.4 5.2 4.6 4.7 4.8 6.0 nan nan 5.8 4.8 3.6 3.9 4.1 4.0
nan nan nan nan nan nan nan nan nan nan nan 3.6 nan nan nan nan nan nan nan 4.2 2.5 3.3 3.9 3.8 3.8 3.2 3.1 4.8 5.4 3.1 5.4 4.8 6.1 5.3 5.3 3.6 2.5 3.7 3.7 3.6 3.6 3.8 3.7 3.7
nan nan nan nan nan nan nan nan nan nan 2.6 2.5 2.8 nan nan nan nan nan nan nan nan nan nan 3.7 3.3 3.8 3.5 4.0 4.1 4.3 3.7 nan 3.8 5.0 4.2 3.6 3.5 nan 2.9 3.3 3.5 nan nan nan
nan nan nan nan nan nan nan nan nan nan nan 4.0 3.0 nan nan nan nan nan nan nan nan nan nan 3.0 3.1 3.0 0.0 2.9 3.7 4.2 4.2 3.4 3.5 4.4 3.5 5.0 3.6 3.5 3.3 3.3 3.0 3.3 nan nan
nan nan nan nan nan nan nan nan nan nan 3.7 4.2 3.6 nan nan nan nan nan nan nan nan nan 2.9 2.8 3.5 nan 3.4 nan nan 4.5 nan 4.2 4.9 4.7 4.1 4.1 3.7 2.7 2.5 3.1 5.0 nan nan nan
nan nan nan nan nan nan nan 2.5 nan nan nan 3.6 5.3 5.0 nan nan nan nan nan nan nan nan 2.7 2.7 nan nan 3.7 3.2 4.0 0.0 nan nan 3.8 3.8 nan nan 2.5 nan nan nan 3.3 nan nan nan
nan nan nan nan nan nan 2.5 3.1 nan nan nan 3.2 3.3 5.6 nan nan nan nan nan nan nan nan 2.7 3.0 nan nan 4.0 2.7 2.6 nan nan nan nan nan nan nan nan nan nan nan nan nan nan nan
nan nan nan nan nan nan nan nan nan nan nan 2.4 2.8 3.6 2.5 nan 2.5 2.4 nan nan 2.6 3.1 nan 2.7 2.6 2.9 3.0 3.9 5.0 nan nan nan nan nan nan nan nan nan nan nan nan nan nan nan
nan nan nan nan nan 2.6 nan nan nan nan 3.1 2.8 2.5 2.7 3.0 nan 2.4 2.5 3.5 3.0 3.7 2.7 3.1 2.7 3.4 3.0 4.2 3.9 nan nan nan nan nan nan nan nan nan nan nan nan nan nan nan nan
nan 0.0 2.5 3.2 2.6 nan nan 2.6 2.6 3.0 3.0 2.9 2.5 2.6 2.7 2.7 2.5 3.1 2.9 3.1 3.3 3.0 3.0 3.8 3.0 4.1 nan nan nan nan nan nan nan nan nan nan nan nan nan nan nan nan nan nan
2.5 3.0 2.7 nan nan 5.0 3.2 3.9 3.4 3.4 3.3 2.5 2.6 nan 2.7 nan 2.5 2.7 2.6 3.1 3.2 3.1 3.9 3.6 3.7 4.6 4.5 nan nan nan nan nan nan nan nan nan nan nan nan nan nan nan nan 5.6
nan nan nan nan 3.1 3.4 2.9 2.8 2.8 2.7 2.7 2.4 2.5 2.5 2.4 2.7 2.4 2.8 2.6 2.8 2.9 3.5 3.7 3.7 4.3 4.7 5.0 nan nan nan nan nan nan nan 10.0 5.0 5.0 6.3 6.3 7.1 nan 5.0 4.9 5.5
nan 2.8 2.9 3.7 2.7 4.8 2.7 3.7 3.1 2.6 2.5 2.5 2.5 2.5 2.5 2.5 2.5 2.5 2.5 2.9 3.2 2.5 3.0 3.5 3.9 4.3 nan nan nan nan nan nan nan nan nan nan nan nan nan 4.3 4.8 5.1 7.6 7.9
3.5 2.9 4.7 2.7 2.7 3.0 3.0 2.6 2.5 2.5 2.5 2.5 2.5 2.5 2.8 2.5 2.6 2.5 2.9 2.9 2.7 3.4 3.8 3.8 4.0 4.4 nan nan 0.0 nan nan 3.1 3.6 3.8 4.3 4.2 4.9 7.0 6.6 6.2 6.1 6.7 8.5 8.6
3.6 2.8 5.7 3.7 3.1 2.9 2.7 2.5 2.5 2.5 2.5 2.5 2.5 2.5 2.9 3.1 3.0 2.8 2.7 3.3 3.4 3.5 4.0 4.0 3.8 4.0 5.0 4.0 3.6 4.1 4.4 5.5 6.0 5.4 5.3 6.2 6.6 6.5 8.2 8.0 8.3 8.6 7.4 7.8
3.3 3.2 3.5 2.9 3.0 3.1 2.6 2.5 2.5 2.7 3.1 2.6 2.6 3.1 3.2 3.3 3.2 3.6 3.3 4.0 4.3 4.3 4.4 4.2 4.3 4.8 4.8 4.3 4.3 4.8 5.2 6.1 7.5 8.1 7.8 6.9 7.7 7.7 8.3 7.8 8.1 7.4 7.2 7.3
3.2 3.8 3.4 3.4 3.1 3.9 3.3 2.7 3.0 3.0 3.0 2.8 3.3 3.7 3.8 3.3 3.7 4.4 3.9 4.1 4.2 4.3 4.7 4.5 4.8 4.6 4.7 5.2 5.4 6.9 7.1 7.0 8.1 8.5 8.9 9.3 8.8 8.3 9.7 9.9 9.7 9.2 11.4 7.4